Location: LDNL
(36.4545°S, 141.6685°E)
Time: 07:43:38
(UTC+10:00)

X-37B - Pass Details

Date: 06 July 2022
Orbit: 328 x 343 km, 45.0° (Epoch: 12 August)

Event Time Altitude Azimuth Distance (km) Brightness Sun altitude
Exits shadow 05:49:36 28° 114° (ESE) 686 2.3 -22.7°
Drops below altitude 10° 05:51:12 10° 118° (ESE) 1,314 3.9 -22.3°
Sets 05:53:14 0° 119° (ESE) 2,160 5.1 -21.9°
